Track EARTHCARE now! 10-day predictions EARTHCARE is classified as:
1 59908U 24101A 25196.87074725 .00009919 00000-0 13824-3 0 9991 2 59908 97.0175 323.0829 0001236 115.5544 244.5840 15.57112696 64231